アトラス彗星

C/2021 Q3 ( ATLAS )

English version
Home page
Updated on September 18, 2021

---------------------------------------------------------------------

・ プロフィール

発見日 2021年8月26日
発見光度 19.0等
発見者 Asteroid Terrestrial-Impact Last Alert System (ATLAS) search program

・ 写真集

・ 軌道要素

Epoch 2022 Jan. 21.0 TT = JDT 2459600.5
T 2022 Jan. 23.14819 TT                                 Rudenko
q   5.2155109            (2000.0)            P               Q
z  +0.0125454      Peri.  113.72025     -0.09496407     -0.63101804
 +/-0.0000000      Node   308.01816     +0.04445791     +0.76996913
e   0.9345693      Incl.   77.76919     +0.99448747     -0.09467717
From 83 observations 2021 Aug. 19-Sept. 1, mean residual 0".5.

・ 光度変化

        m1 = 8.0 + 5 logΔ + 10.0 log r

---------------------------------------------------------------------

軌道要素はM.P.E.C. 2021-R75に掲載されたものです。
光度グラフはComet for Windowsで作成したものです。

---------------------------------------------------------------------

Copyright(C) Seiichi Yoshida (comet@aerith.net). All rights reserved.